Regional Weather Roundup
Issued by NWS

Home | Current Version | Previous Version | Graphics & Text | Print | Product List | Glossary On
Versions: 1 2 3 4 5 6 7 8 9 10 11 12 13 14 15 16 17 18 19 20 21 22 23 24 25 26 27 28 29 30 31 32 33 34 35 36 37 38 39 40 41 42 43 44 45 46 47 48 49 50
000
ASUS43 KLOT 191610
RWRIL

ILLINOIS REGIONAL WEATHER ROUNDUP
NATIONAL WEATHER SERVICE CHICAGO/ROMEOVILLE IL
1100 AM CDT FRI SEP 19 2014

NOTE: "FAIR" INDICATES FEW OR NO CLOUDS BELOW 12,000 FEET WITH NO
SIGNIFICANT WEATHER AND/OR OBSTRUCTIONS TO VISIBILITY.

* THESE STATIONS ARE NOT UNDER NWS QUALITY CONTROL. THEY ALSO MAY NOT
  REPORT WEATHER SUCH AS PRECIPITATION OR FOG.

ILZ001-002-007-009-015-016-024-191700-
NORTHWEST ILLINOIS

CITY           SKY/WX    TMP DP  RH WIND       PRES   REMARKS
MOLINE         SUNNY     69  54  58 S13G20    30.09F
STERLING*      SUNNY     70  54  56 SW7       30.12F
SAVANNA*       SUNNY     69  53  58 S12       30.10F
$$

ILZ003-004-008-010-011-017-018-191700-
NORTH CENTRAL ILLINOIS

CITY           SKY/WX    TMP DP  RH WIND       PRES   REMARKS
ROCKFORD       MOSUNNY   68  51  54 S20       30.14F
FREEPORT*      SUNNY     65  55  70 S16       30.13F
ROCHELLE*      SUNNY     67  50  54 S12       30.14S
DE KALB*       SUNNY     65  51  60 S18G24    30.15F
PERU*          SUNNY     69  52  55 S8        30.14F
$$

ILZ005-006-012>014-019>023-191700-
NORTHEAST ILLINOIS

CITY           SKY/WX    TMP DP  RH WIND       PRES   REMARKS
CHICAGO-OHARE  MOSUNNY   66  51  58 S13       30.15F
CHICAGO-MIDWAY MOSUNNY   69  52  54 S8        30.16F
AURORA         SUNNY     67  52  58 S14       30.15F
LANSING*       SUNNY     67  53  61 SE8       30.16F
JOLIET*        SUNNY     67  50  55 S9        30.17S
WAUKEGAN       SUNNY     66  51  58 S12       30.13F
DUPAGE AIRPORT SUNNY     69  52  54 S14       30.14F
KANKAKEE*      MOSUNNY   68  54  60 SE9       30.17F
WHEELING       SUNNY     69  51  52 S12       30.16F
MORRIS*        MOSUNNY   69  54  58 S12       30.15F
ROMEOVILLE*    SUNNY     67  51  56 S10       30.16F
NORTHERLY ISL    N/A     67  50  54 S9          N/A
$$

LMZ740>746-191700-
SOUTHERN LAKE MICHIGAN

STATION/POSITION SKY/WX   TEMP    WIND        PRES    VSBY  WAVE
                          AIR SEA DIR/SP/G                  HT/PER
                          (F)     (DEG/KT/KT) (MB)    (MI)  (FT/S)
SOUTHERN BUOY              62 65  170/ 17/ 21 1021.0F         4/ 5
WAUKEGAN HARBOR            62     160/ 11/ 12   N/A
HARRISON CRIB              62     160/ 12/ 15   N/A
BURNHAM HARBOR             67     180/  7/ 13   N/A
CALUMET HARBOR             66     150/  9/ 11 1020.0F
MICHIGAN CITY              63     140/ 13/ 17   N/A
MICHIGAN CITY 6N           64 65  160/ 10/ 14   N/A           1/ 2
ST. JOSEPH                 63 65  150/ 10/ 14   N/A           1/ 2
$$

ILZ025>027-034>036-040-047-049-050-058-095>099-191700-
WEST-CENTRAL ILLINOIS

CITY           SKY/WX    TMP DP  RH WIND       PRES   REMARKS
QUINCY         SUNNY     70  55  59 S10       30.10F
GALESBURG*     SUNNY     69  55  59 S13       30.11F
MACOMB*        SUNNY     70  52  52 S9        30.13F
JACKSONVILLE*  SUNNY     73  55  52 SE7       30.12F
PITTSFIELD*    SUNNY     72  53  51 SE9       30.11F
$$

ILZ028>032-037-038-041>044-048-051>054-059>061-191700-
CENTRAL ILLINOIS

CITY           SKY/WX    TMP DP  RH WIND       PRES   REMARKS
PONTIAC        MOSUNNY   72  52  49 S9        30.15S
DECATUR        SUNNY     71  51  49 SE15      30.14F
PEORIA         SUNNY     70  53  54 S8        30.13S
LACON*         SUNNY     69  52  55 S10       30.12F
LINCOLN*       SUNNY     72  52  49 S10G16    30.11F
SPRINGFIELD    SUNNY     70  56  61 SE8       30.13F
TAYLORVILLE    SUNNY     70  52  52 S13       30.13F
$$

ILZ033-039-045-046-055>057-062-063-191700-
EAST-CENTRAL ILLINOIS

CITY           SKY/WX    TMP DP  RH WIND       PRES   REMARKS
CHAMPAIGN      SUNNY     70  49  47 SE12      30.16S
DANVILLE*      SUNNY     70  48  45 SE12      30.15S
RANTOUL*       SUNNY     72  46  39 SE12      30.17S
MATTOON        SUNNY     69  51  52 SE10      30.15S
PARIS*         SUNNY     70  51  50 SE8       30.17S
$$

ILZ079-100>102-191700-
SOUTHWEST ILLINOIS

CITY           SKY/WX    TMP DP  RH WIND       PRES   REMARKS
ALTON          SUNNY     70  55  60 SE9       30.12F
BELLEVILLE     SUNNY     71  59  66 VRB6      30.11S
CAHOKIA*       SUNNY     70  57  63 VRB3      30.11S
SPARTA*        SUNNY     70  57  63 SE7       30.12S
$$

ILZ064>066-069>071-074>076-080>082-084>086-088>090-092>094-191700-
SOUTH-CENTRAL ILLINOIS

CITY           SKY/WX    TMP DP  RH WIND       PRES   REMARKS
CARBONDALE     SUNNY     71  59  65 SE5       30.11S
CAIRO*         SUNNY     74  61  63 CALM      30.10S
EFFINGHAM*     SUNNY     71  49  45 SE9       30.14S
MARION         SUNNY     72  59  64 SE3       30.12R
MT. VERNON     SUNNY     70  55  60 E6        30.14S
CENTRALIA*     SUNNY     71  55  56 SE8       30.12F
SALEM*         SUNNY     71  58  64 SE6       30.13F
METROPOLIS*    SUNNY     74  60  59 E5        30.09S
$$

ILZ067-068-072-073-078-083-087-091-191700-
SOUTHEAST ILLINOIS

CITY           SKY/WX    TMP DP  RH WIND       PRES   REMARKS
LAWRENCEVILLE  SUNNY     72  52  49 E10       30.15S
FLORA*         SUNNY     70  53  53 SE8       30.14S
FAIRFIELD*     SUNNY    N/A N/A N/A CALM      30.13S
HARRISBURG*    SUNNY     72  57  58 SE6       30.12S
ROBINSON*      SUNNY     72  55  55 E12       30.16S
CARMI*         SUNNY     75  56  52 E7        30.12S
$$

ABBREVIATIONS USED IN REMARKS
   TC - TEMPERATURE IN CELSIUS
  WCI - WIND CHILL INDEX
   HX - HEAT INDEX
  VSB - VISIBILITY
$$



USA.gov is the U.S. government's official web portal to all federal, state and local government web resources and services.